Location: ???????
(54.6620°N, 38.6699°E)
Time: 05:10:17
(UTC+00:00)

Daily predictions for brighter satellites

Satellite Brightness Start Highest point End
(mag) Time Altitude Azimuth Time Altitude Azimuth Time Altitude Azimuth
Cosmos 2237 Rocket 4.5 00:13:50 18° ESE 00:14:11 18° E 00:17:50 10° ENE
Cosmos 2369 Rocket 4.2 00:17:55 23° NE 00:17:55 23° NE 00:21:58 10° E
ADEOS Rocket 4.0 00:15:41 10° NNE 00:21:56 50° E 00:21:56 50° E
ADEOS II 4.5 00:17:53 10° NNE 00:19:01 17° NNE 00:19:01 17° NNE
Cosmos 2360 Rocket 4.2 00:29:09 22° NNE 00:29:09 22° NNE 00:31:10 10° NNE
Cosmos 2322 Rocket 4.1 00:34:11 23° NNE 00:34:11 23° NNE 00:36:19 10° NNE
Cosmos 2333 Rocket 4.1 00:35:28 23° NNE 00:35:28 23° NNE 00:37:42 10° NNE
SJ 16-02 4.3 00:38:25 12° E 00:38:25 12° E 00:38:51 10° ESE
USA 234 3.8 00:30:24 10° ESE 00:35:06 51° E 00:35:06 51° E
CZ-2D R/B 4.4 00:35:45 10° NNE 00:36:47 16° NNE 00:36:47 16° NNE
ACS3 Solar Sail 2.7 00:35:45 10° NNE 00:39:55 43° NE 00:39:55 43° NE
SL-16 R/B 4.2 00:44:51 21° NNE 00:44:51 21° NNE 00:46:57 10° NNE
COSMOS 2455 4.2 00:46:06 33° NNE 00:46:06 33° NNE 00:49:31 10° NE
Resurs 1-4 Rocket 4.3 00:48:08 10° N 00:49:17 17° N 00:49:17 17° N
Cosmos 1725 Rocket 4.4 00:52:37 10° N 00:58:54 59° ENE 01:05:07 10° SSE
Cosmos 2219 Rocket 3.5 01:03:00 31° NNE 01:03:00 31° NNE 01:06:05 10° NNE
NOSS 3-1 (C) 4.0 01:03:05 48° ENE 01:03:05 48° ENE 01:07:33 10° NE
Cosmos 1727 Rocket 4.4 01:07:36 55° NNE 01:07:36 55° NNE 01:12:25 10° NNE
Lacrosse 4 Rocket 4.1 01:11:04 14° NE 01:11:04 14° NE 01:12:30 10° NE
NOSS 3-2 (C) 4.4 01:11:41 40° N 01:12:20 41° N 01:19:25 10° ENE
Lacrosse 5 rocket 4.1 01:16:10 13° E 01:16:10 13° E 01:16:34 10° E
H-2A R/B 3.7 01:14:46 10° NNE 01:16:39 23° NNE 01:16:39 23° NNE
Cosmos 1802 Rocket 4.1 01:13:54 10° N 01:21:19 65° SSE 01:26:35 10° SSE
NOSS 0 Rocket 4.1 01:20:16 63° SE 01:20:45 66° ESE 01:26:52 10° NE
Cosmos 1000 Rocket 4.4 01:28:39 87° WSW 01:28:43 88° W 01:35:07 10° N
NOSS 3-2 (A) 4.3 01:31:49 40° NNW 01:33:55 52° NNE 01:41:46 10° E
COSMOS 2428 2.8 01:39:07 64° N 01:39:07 64° N 01:44:08 10° NNE
Meteor 2-5 Rocket 3.9 01:37:02 43° S 01:39:00 76° E 01:44:47 10° NNE
Cosmos 1980 Rocket 4.2 01:38:37 15° N 01:39:05 15° N 01:42:23 10° NNE
Cosmos 2322 4.0 01:40:27 56° N 01:40:27 56° N 01:45:12 10° NNE
USA 267 4.2 01:34:28 10° ENE 01:40:37 41° SE 01:44:05 24° SSW
CZ-2C R/B 2.7 01:36:11 10° NNE 01:41:15 69° ESE 01:42:20 53° SSE
Cosmos 1980 3.9 01:40:46 54° S 01:41:54 69° ESE 01:47:34 10° NE
Cosmos 2123 Rocket 3.9 01:39:50 34° S 01:42:46 85° E 01:48:58 10° NNE
Cosmos 2016 Rocket 3.9 01:37:40 10° NNW 01:44:05 81° W 01:50:25 10° S
NOSS 3-1 (A) 3.0 01:50:03 67° S 01:50:37 75° SE 01:56:42 10° NE
Cosmos 1939 Rocket 3.8 01:47:05 10° NNE 01:50:48 43° E 01:51:20 41° ESE
Meteor 2-21 4.3 01:50:58 67° WNW 01:50:58 67° WNW 01:56:59 10° N
Cosmos 2084 4.5 01:52:25 38° NNE 01:52:25 38° NNE 01:55:57 10° E
Cosmos 1190 Rocket 4.2 01:54:10 57° S 01:54:10 57° S 01:58:26 10° SSE
Cosmos 676 Rocket 4.0 01:54:26 56° NNW 01:55:34 82° ENE 02:00:47 10° SSE
Cosmos 2297 4.1 01:54:05 31° NNW 01:56:46 61° NE 02:02:20 10° SE
CENTAUR R/B 3.2 01:52:52 36° NW 01:56:47 82° NE 02:06:03 10° SE
Cosmos 2237 Rocket 2.2 01:55:42 47° SSW 01:57:23 80° ESE 02:03:04 10° NE
ARGOS 3.0 01:52:15 10° NNE 01:57:43 81° WNW 01:58:54 56° SSW
ADEOS II 3.8 01:57:56 10° N 01:59:50 19° NNW 01:59:50 19° NNW
Cosmos 2369 Rocket 2.5 01:59:42 30° NNW 02:02:31 67° NE 02:08:12 10° SE
USA 238 DEB 4.5 02:03:31 33° NW 02:05:46 41° N 02:12:46 10° ENE
USA 238 4.5 02:03:37 33° NW 02:05:52 41° N 02:12:52 10° ENE
Cosmos 1954 Rocket 3.8 02:07:31 67° WSW 02:07:36 67° WSW 02:12:42 10° SSE
ADEOS Rocket 3.5 02:01:24 10° N 02:07:45 48° WNW 02:08:51 45° W
Cosmos 2056 Rocket 4.4 02:03:35 10° S 02:08:46 49° ESE 02:13:57 10° NE
Cosmos 2360 Rocket 3.6 02:10:54 22° NNW 02:10:54 22° NNW 02:15:03 10° NNE
Meteor 2-16 Rocket 4.3 02:05:47 12° SSW 02:11:29 75° WNW 02:17:39 10° N
SJ 16-02 1.8 02:15:02 44° S 02:15:02 44° S 02:18:07 10° S
Cosmos 2322 Rocket 3.7 02:15:59 21° NNW 02:16:03 21° NNW 02:20:18 10° NNE
IRS-1D 4.3 02:11:35 10° NNE 02:16:26 49° E 02:21:11 10° S
SKYMED 2 3.6 02:13:26 10° SSE 02:17:46 77° ENE 02:21:03 17° NNW
Cosmos 2333 Rocket 3.8 02:17:29 20° NNW 02:17:51 20° NNW 02:22:03 10° NNE
CZ-2D R/B 4.0 02:16:43 10° N 02:18:02 14° NNW 02:18:02 14° NNW
USA 234 3.5 02:13:58 10° SE 02:20:20 52° SW 02:22:27 39° W
NOSS 2-2 (E) 4.0 02:23:27 37° N 02:24:06 41° NNE 02:28:10 10° ESE
ACS3 Solar Sail 2.4 02:19:05 10° N 02:24:02 34° NW 02:24:02 34° NW
SeaSat 1 4.2 02:21:26 10° NNE 02:24:16 17° NNW 02:24:16 17° NNW
COSMO-SKYMED 1 2.7 02:20:42 10° SSE 02:24:47 66° ENE 02:28:38 12° N
USA 59 Rocket 1.1 02:28:26 20° NNE 02:28:26 20° NNE 02:29:48 10° NE
SL-16 R/B 3.9 02:26:41 16° NNW 02:27:38 17° NNW 02:31:16 10° NNE
Cosmos 1371 Rocket 4.4 02:22:53 10° SSW 02:28:08 65° ESE 02:33:27 10° NNE
Cosmos 968 Rocket 3.5 02:25:09 20° NNW 02:28:49 80° ENE 02:34:05 10° SSE
COSMOS 2455 4.0 02:29:14 24° NW 02:30:49 27° NNW 02:35:56 10° NE
Cosmos 1741 Rocket 4.3 02:26:44 15° NNW 02:31:07 67° ENE 02:36:24 10° SE
Resurs 1-4 Rocket 4.1 02:29:12 10° NNW 02:30:19 13° NNW 02:30:19 13° NNW
Cosmos 371 Rocket 3.4 02:32:57 47° W 02:33:34 50° WSW 02:38:14 10° S
Cosmos 2061 Rocket 4.0 02:29:38 10° NNW 02:35:39 54° W 02:41:39 10° SSW
Cosmos 1891 Rocket 4.5 02:29:47 10° NNW 02:36:13 89° W 02:42:28 10° S
CZ-4 R/B 4.2 02:33:34 10° NNE 02:38:27 67° ESE 02:43:12 10° S
Cosmos 2292 Rocket 4.4 02:35:23 14° SSW 02:39:53 55° WNW 02:46:28 10° N
Aureole 3 Rocket 3.6 02:35:18 10° NNW 02:40:04 78° W 02:46:46 10° S
Cosmos 1656 Rocket 3.9 02:38:46 34° WNW 02:40:39 46° WSW 02:46:02 10° S
NOAA 12 4.5 02:36:04 10° NNE 02:41:24 67° ESE 02:46:41 10° S
Gbstr 26 Del rocket 3.7 02:39:58 36° WSW 02:42:03 66° S 02:48:07 10° ESE
Cosmos 304 Rocket 4.1 02:41:42 40° W 02:42:08 41° WSW 02:46:35 10° S
Meteor 1-24 Rocket 4.1 02:41:06 35° W 02:42:17 39° WNW 02:47:23 10° N
Cosmos 2219 Rocket 3.6 02:44:42 21° NW 02:45:37 22° NNW 02:49:57 10° NNE
Cosmos 2233 Rocket 4.3 02:40:37 10° NNW 02:46:31 43° W 02:52:21 10° SSW
Cosmos 1400 Rocket 2.5 02:44:17 17° NNW 02:47:06 85° ENE 02:50:46 10° SSE
Lacrosse 4 Rocket 2.4 02:46:36 20° NNW 02:48:57 40° NE 02:52:41 10° ESE
Cosmos 2151 Rocket 3.6 02:45:03 10° N 02:49:35 81° E 02:54:03 10° SSE
Cosmos 1484 Rocket 4.3 02:47:03 10° NNE 02:50:19 34° E 02:53:34 10° SSE
Lacrosse 5 rocket 0.7 02:49:50 57° W 02:50:24 77° SSW 02:53:43 10° ESE
In-Cosmos 22 Rocket 4.3 02:45:15 10° S 02:51:05 83° ESE 02:56:54 10° NNE
USA 306 3.2 02:50:32 29° SSW 02:51:49 44° SSE 02:55:30 10° E
NOSS 3-1 (C) 3.8 02:50:25 30° WNW 02:52:42 44° NNW 02:59:03 10° NE
NOSS 2-2 (C) 3.3 02:53:25 38° WNW 02:54:49 77° SW 02:59:37 10° SE
Cosmos 1869 4.4 02:56:59 22° SW 02:56:59 22° SW 02:58:36 10° SSW
Cosmos 1447 Rocket 4.4 02:50:03 10° SSW 02:56:18 74° WNW 03:02:41 10° N
Sich 1 Rocket 4.0 02:52:04 10° N 02:56:38 66° ENE 03:01:06 10° SSE
H-2A R/B 3.6 02:55:10 10° N 02:57:08 16° NNW 02:57:08 16° NNW
Cosmos 1464 Rocket 4.0 02:52:18 10° N 02:58:32 87° E 03:04:40 10° S
H-2A R/B 4.0 02:55:50 10° N 02:58:58 32° NW 02:58:58 32° NW
SL-16 R/B 2.4 02:55:00 10° SSW 03:00:41 76° ESE 03:06:23 10° NE
SWARM C 4.4 02:58:15 10° S 03:01:35 83° W 03:04:55 10° N
SWARM A 4.2 02:58:22 10° S 03:01:41 84° E 03:05:02 10° N
Cosmos 1624 Rocket 3.9 02:56:47 10° SSW 03:01:58 76° WNW 03:07:11 10° NNE
Cosmos 1420 Rocket 4.2 02:57:42 15° SW 03:02:00 52° NW 03:07:12 10° NNE
Cosmos 332 Rocket 3.7 02:58:13 14° NNW 03:02:22 82° WSW 03:07:09 10° SSE
NOSS 3-2 (C) 4.2 02:59:05 18° NW 03:04:19 64° NNE 03:12:32 10° ESE
SL-08 RB Rocket 4.4 03:00:47 10° N 03:04:48 31° WNW 03:06:14 25° W
Helios 1A Rocket 2.9 03:01:47 10° S 03:04:57 37° W 03:05:20 35° W
Cosmos 1378 Rocket 3.5 03:00:43 10° S 03:04:59 87° E 03:09:18 10° NNE
Cosmos 2242 Rocket 3.5 03:02:18 10° SSW 03:06:39 63° WNW 03:11:06 10° N
NOSS 0 Rocket 4.4 03:04:17 23° W 03:07:35 40° NW 03:13:23 10° NNE
Okean 1 Rocket 3.1 03:03:19 10° N 03:07:41 80° ENE 03:12:00 10° SSE
Cosmos 2346 Rocket 4.4 03:02:58 10° SSW 03:08:59 60° WNW 03:15:01 10° N
Cosmos 2034 Rocket 4.3 03:03:31 10° N 03:09:54 75° ENE 03:16:16 10° SSE
Cosmos 1812 3.8 03:14:35 18° SW 03:14:35 18° SW 03:15:39 10° SSW
Meteor 2-1 Rocket 4.4 03:07:28 10° NNW 03:13:27 84° ENE 03:19:17 10° SSE
NOSS 2-1 (E) 4.2 03:16:17 21° NNW 03:16:47 22° NNW 03:19:15 10° NE
NOSS 2-2 (D) 3.2 03:14:49 23° NW 03:16:59 85° SW 03:21:42 10° SE
Cosmos 1452 Rocket 4.4 03:12:45 10° S 03:17:48 53° ESE 03:22:54 10° NE
CZ-2C R/B 3.5 03:14:48 10° N 03:18:55 26° WNW 03:21:33 17° W
Cosmos 1850 Rocket 4.0 03:14:12 11° NNW 03:19:02 57° WSW 03:24:04 10° S
PKM 4.1 03:19:13 19° WNW 03:22:59 64° SSW 03:25:50 10° SE
COSMOS 2428 3.9 03:21:07 18° WNW 03:23:38 25° NNW 03:28:17 10° NNE
USA 267 3.3 03:17:34 10° ENE 03:24:09 85° SSE 03:30:43 10° WSW
Cosmos 1939 Rocket 3.8 03:21:25 10° N 03:24:34 24° WNW 03:26:12 18° W
NOSS 3-2 (A) 4.0 03:19:10 15° NW 03:25:16 76° SW 03:33:49 10° SE
Cosmos 1980 Rocket 4.1 03:21:16 10° NNW 03:25:21 20° NNE 03:29:24 10° ENE
Cosmos 1980 4.4 03:22:38 17° W 03:26:25 34° NW 03:31:35 10° NNE
USA 229 DEB 3.9 03:20:37 10° SSW 03:26:36 69° SE 03:33:25 10° NE
USA 229 3.9 03:20:50 10° SSW 03:26:48 68° SE 03:33:38 10° NE
IGS 5A 3.9 03:24:10 10° NNE 03:28:10 62° ESE 03:32:09 10° S
Cosmos 2084 3.4 03:28:09 18° WNW 03:31:02 63° SW 03:35:00 10° SE
Cosmos 1331 Rocket 4.1 03:26:57 10° SSW 03:32:12 80° ESE 03:37:27 10° NNE
Meteor 1-11 4.3 03:28:59 10° SSW 03:34:51 87° WNW 03:40:44 10° NNE
ARGOS 4.4 03:33:22 10° N 03:37:13 20° NW 03:40:21 13° W
Cosmos 1356 Rocket 4.4 03:33:28 10° N 03:37:25 47° ENE 03:41:21 10° SE
Cosmos 2297 4.4 03:36:01 12° NW 03:40:38 33° WSW 03:45:34 10° S
CBERS-1 4.2 03:36:00 10° NNE 03:41:10 80° ESE 03:46:17 10° SSW
NOSS 3-1 (A) 3.8 03:37:27 14° W 03:41:51 45° NNW 03:48:15 10° NE
Cosmos 2237 Rocket 3.0 03:37:34 12° W 03:42:03 31° NW 03:47:02 10° NNE
SMAP 4.0 03:37:47 10° NNE 03:42:22 54° E 03:46:56 10° S
Cosmos 1441 Rocket 4.0 03:40:07 10° S 03:43:20 47° E 03:46:34 10° NNE
Okean 2 Rocket 3.5 03:40:56 10° NNW 03:45:02 40° W 03:49:08 10° SSW
Cosmos 2369 Rocket 3.1 03:41:31 11° NW 03:46:10 30° WSW 03:51:01 10° SSW
CENTAUR R/B 3.8 03:40:00 11° NW 03:47:18 43° WSW 03:55:52 10° S
ATLAS 3B R/B 3.1 03:40:30 10° SW 03:48:11 87° SE 03:56:09 10° NE
Cosmos 2056 Rocket 4.1 03:45:58 10° WSW 03:51:00 38° NW 03:56:01 10° NNE
Cosmos 1943 3.5 03:46:05 10° SSW 03:51:40 72° ESE 03:57:16 10° NE
IRS-1D 4.1 03:51:02 10° N 03:55:25 32° WNW 03:59:45 10° WSW
Orbus 7S? 2.7 03:51:40 10° WSW 03:55:36 73° NNW 03:58:14 10° ENE
Cosmos 2360 Rocket 4.1 03:53:34 10° NW 03:56:49 15° N 04:00:04 10° NE
USA 238 DEB 4.3 03:51:03 10° NW 03:57:58 58° NNE 04:05:38 10° ESE
USA 238 4.3 03:51:09 10° NW 03:58:04 58° NNE 04:05:44 10° ESE
Cosmos 1315 Rocket 2.9 03:54:34 10° N 03:58:26 74° ENE 04:02:17 10° SSE
COSMO-SKYMED 1 3.9 03:57:43 10° SW 04:00:33 18° W 04:03:24 10° NW
Iridium 45 4.3 03:57:59 10° NNW 04:01:08 54° W 04:04:15 10° SSW
Cosmos 2228 3.3 03:57:19 10° N 04:01:35 73° ENE 04:05:50 10° SSE
Cosmos 292 Rocket 4.0 03:57:38 10° NW 04:02:18 51° WSW 04:06:55 10° S
Cosmos 2322 Rocket 4.1 03:59:00 10° NNW 04:02:21 15° N 04:05:41 10° NE
NOSS 2-3 (C) 4.5 03:58:49 10° NW 04:03:17 56° NNE 04:09:20 10° ESE
Cosmos 2333 Rocket 4.1 04:00:49 10° NNW 04:04:26 17° N 04:08:03 10° NE
ACS3 Solar Sail 3.6 04:05:17 10° NNW 04:05:45 10° NW 04:06:12 10° NW
Cosmos 1025 Rocket 3.4 04:05:57 10° SW 04:10:07 44° WNW 04:14:20 10° N
NOSS 2-3 (E) 4.3 04:06:13 10° NW 04:10:50 66° NE 04:17:02 10° ESE
Cosmos 1461 4.0 04:07:51 10° NW 04:11:28 32° NNE 04:15:02 10° E
NOSS 2-2 (E) 4.1 04:10:03 10° WNW 04:13:33 41° SW 04:18:13 10° SSE
SL-16 R/B 4.1 04:10:24 10° NNW 04:14:03 17° NNE 04:17:43 10° NE
MOS 1 Rocket 4.3 04:09:23 10° NNE 04:14:13 58° E 04:19:17 10° S
Cosmos 1674 Rocket 4.3 04:11:06 10° SW 04:15:05 32° WNW 04:19:05 10° N
USA 59 Rocket 1.1 04:14:45 10° NW 04:16:48 17° N 04:18:59 10° NE
COSMOS 2455 4.2 04:13:25 10° NW 04:18:34 28° NNE 04:23:42 10° ENE
Cosmos 1697 Rocket 3.6 04:14:04 10° NNW 04:19:28 44° NE 04:24:50 10° ESE
USA 306 2.6 04:16:47 10° W 04:20:20 81° S 04:24:22 10° E
Tsikada Rocket 4.1 04:16:15 10° SSW 04:22:36 77° WNW 04:29:03 10° N
